Tracking 25372 objects as of 24-Jan-2022
HD Live streaming from Space Station
objects crossing your sky now

GNOMES-1

Track GNOMES-1 now!
10-day predictions


NORAD ID: 46266
Int'l Code: 2020-059B
Perigee: 607.7 km
Apogee: 613.2 km
Inclination: 97.9 °
Period: 96.8 minutes
Semi major axis: 6981 km
RCS: Unknown
Launch date: August 30, 2020
Source: United States (US)
Launch site: AIR FORCE EASTERN TEST RANGE (AFETR)
aabbcc
Your satellite tracking list
Your tracking list is empty




NASA's NSSDC Master Catalog

Two Line Element Set (TLE):
1 46266U 20059B   22024.53701876  .00000609  00000-0  71945-4 0  9992
2 46266  97.8806 216.4688 0003896 263.9102  96.1670 14.88275045 76071
Source of the keplerian elements: AFSPC